Location: Berbisdorf
(50.7638°N, 12.9442°E)
Time: 02:24:52
(UTC+00:00)

STARLINK-1317 - Pass Details

Date: 09 October 2020
Orbit: 549 x 550 km, 53.0° (Epoch: 20 October)

Event Time Altitude Azimuth Distance (km) Brightness Sun altitude
Exits shadow 03:36:41 36° 236° (SW) 882 4.2 -17.4°
Maximum altitude 03:38:18 76° 156° (SSE) 569 3.6 -17.1°
Drops below altitude 10° 03:42:27 10° 72° (ENE) 1,827 7.6 -16.5°
Sets 03:44:41 0° 71° (ENE) 2,724 8.9 -16.1°
